User: anonymous   Login
Location: Turtle Rock Observatory
(36.6913°N, 81.9708°W)
Time: 12:42:29
(UTC-04:00)
Language:

Lacrosse 5 rocket - Orbit

View from above orbital plane
View from above orbital plane
View from above satellite
View from above satellite

Ground track
Ground track

The orbit data is extracted from the following two-line orbital elements,

1 28647U 05016B   17141.92752727 0.00000400  00000-0  23603-4 0    09
2 28647  56.9940 122.1467 0122295 279.6820  80.3180 15.04937199    08
Epoch (UTC): 21 May 2017 22:15:38
Eccentricity: 0.0122295
inclination: 56.9940°
perigee height: 467 km
apogee height: 636 km
right ascension of ascending node: 122.1467°
argument of perigee: 279.6820°
revolutions per day: 15.04937199
mean anomaly at epoch: 80.3180°
orbit number at epoch: 0

The dashed part of the orbit path shows where the satellite is in the earth's shadow,  

DLR